Location: Kikino
(54.4440°N, 112.0940°W)
Time: 19:46:53
(UTC+00:00)

A-11 Canister half - Pass Details

Date: 28 May 2024
Orbit: 1525 x 1683 km, 47.3° (Epoch: 12 June)

Event Time Altitude Azimuth Distance (km) Brightness Sun altitude
Rises 02:49:23 0° 212° (SSW) 4,666 11.6 6.0°
Reaches altitude 10° 02:52:47 10° 203° (SSW) 3,694 11.0 5.6°
Maximum altitude 03:00:40 32° 144° (SE) 2,411 9.7 4.6°
Drops below altitude 10° 03:08:42 10° 86° (E) 3,782 10.6 3.6°
Sets 03:12:13 0° 78° (ENE) 4,793 11.2 3.2°
